Weather History for Santa Ana, CA

Change the Weather History Date:

Thursday, September 6, 2012

  Actual Average Record
Temperature  
Mean Temperature 79 °F 73 °F  
Max Temperature 87 °F 80 °F 96 °F (2013)
Min Temperature 70 °F 65 °F 61 °F (2005)
Degree Days  
Heating Degree Days 0 0  
Month to date heating degree days 0 0  
Since 1 July heating degree days 0 0  
Cooling Degree Days 14 8  
Month to date cooling degree days 76 48  
Year to date cooling degree days 794 619  
Growing Degree Days 29 (Base 50)    
Moisture  
Dew Point 60 °F    
Average Humidity 55    
Maximum Humidity 79    
Minimum Humidity 31    
Precipitation  
Precipitation 0.00 in 0.00 in 0.73 in (1978)
Month to date precipitation T 0.00  
Year to date precipitation 4.03 9.03  
Since 1 July precipitation 0.16 0.07  
Snow  
Snow 0.00 in - - ()
Month to date snowfall 0.0  
Year to date snowfall 0.0  
Since 1 July snowfall 0.0  
Snow Depth 0.00 in    
Sea Level Pressure  
Sea Level Pressure 29.94 in    
Wind  
Wind Speed 5 mph (SSW)    
Max Wind Speed 13 mph    
Max Gust Speed 17 mph    
Visibility 10 miles    
Events      
T = Trace of Precipitation, MM = Missing Value Source: NWS Daily Summary

Daily Weather History Graph

Daily Weather History Graph

Search for Another Location

Airport:

Trip Planner

Search our weather history database for the weather conditions in past years. The results will help you decide how hot, cold, wet, or windy it might be!

Date:

Astronomy

Sep. 06, 2012 Rise Set
Actual Time 6:29 AM PDT 7:09 PM PDT
Civil Twilight 6:03 AM PDT 7:34 PM PDT
Nautical Twilight 5:34 AM PDT 8:04 PM PDT
Astronomical Twilight 5:03 AM PDT 8:34 PM PDT
Moon 10:43 PM PDT (9/6) 12:12 PM PDT (9/6)
Length of Visible Light 13h 30m
Length of Day
12h 40m
Waning Gibbous, 66% of the Moon is Illuminated
Sep 6
Waning Gibbous
Sep 8
Last Quarter
Sep 15
New
Sep 22
First Quarter
Sep 29
Full

Hourly Weather History & Observations

Time (PDT) Temp. Heat Index Dew Point Humidity Pressure Visibility Wind Dir Wind Speed Gust Speed Precip Events Conditions
12:53 AM 72.0 °F - 63.0 °F 73% 29.94 in 10.0 mi South 3.5 mph - N/A   Clear
1:53 AM 72.0 °F - 63.0 °F 73% 29.93 in 10.0 mi South 3.5 mph - N/A   Clear
2:53 AM 72.0 °F - 64.0 °F 76% 29.92 in 10.0 mi Calm Calm - N/A   Clear
3:53 AM 72.0 °F - 64.9 °F 78% 29.91 in 10.0 mi Calm Calm - N/A   Clear
4:53 AM 71.1 °F - 64.9 °F 81% 29.91 in 10.0 mi Calm Calm - N/A   Partly Cloudy
5:53 AM 71.1 °F - 64.9 °F 81% 29.93 in 10.0 mi Calm Calm - N/A   Clear
6:53 AM 71.1 °F - 62.1 °F 73% 29.95 in 10.0 mi South 3.5 mph - N/A   Partly Cloudy
7:12 AM 73.4 °F - 62.6 °F 69% 29.96 in 10.0 mi South 4.6 mph - N/A   Mostly Cloudy
7:25 AM 73.4 °F - 62.6 °F 69% 29.96 in 10.0 mi South 4.6 mph - N/A   Scattered Clouds
7:53 AM 73.0 °F - 66.0 °F 79% 29.97 in 10.0 mi Calm Calm - N/A   Scattered Clouds
8:53 AM 75.9 °F - 64.9 °F 69% 29.98 in 10.0 mi SW 3.5 mph - N/A   Scattered Clouds
9:53 AM 80.1 °F 81.2 °F 62.1 °F 54% 29.98 in 10.0 mi Calm Calm - N/A   Scattered Clouds
10:53 AM 84.0 °F 83.8 °F 59.0 °F 43% 29.98 in 10.0 mi Variable 4.6 mph - N/A   Clear
11:53 AM 86.0 °F 85.7 °F 60.1 °F 41% 29.97 in 10.0 mi SSW 9.2 mph - N/A   Scattered Clouds
12:53 PM 87.1 °F 86.1 °F 57.9 °F 37% 29.96 in 10.0 mi SSW 12.7 mph - N/A   Scattered Clouds
1:53 PM 87.1 °F 84.9 °F 53.1 °F 31% 29.95 in 10.0 mi SW 9.2 mph - N/A   Scattered Clouds
2:53 PM 86.0 °F 84.5 °F 55.0 °F 35% 29.93 in 10.0 mi SW 9.2 mph - N/A   Scattered Clouds
3:53 PM 84.0 °F 84.4 °F 61.0 °F 46% 29.92 in 10.0 mi SW 10.4 mph - N/A   Partly Cloudy
4:53 PM 82.9 °F 82.1 °F 55.9 °F 39% 29.91 in 10.0 mi West 8.1 mph - N/A   Partly Cloudy
5:53 PM 84.0 °F - 46.9 °F 27% 29.91 in 10.0 mi West 6.9 mph - N/A   Scattered Clouds
6:53 PM 79.0 °F - 54.0 °F 42% 29.91 in 10.0 mi SSW 5.8 mph - N/A   Scattered Clouds
7:53 PM 77.0 °F - 55.0 °F 47% 29.92 in 10.0 mi SW 4.6 mph - N/A   Partly Cloudy
8:53 PM 75.0 °F - 59.0 °F 57% 29.94 in 10.0 mi SSW 4.6 mph - N/A   Clear
9:53 PM 75.0 °F - 62.1 °F 64% 29.96 in 10.0 mi SW 5.8 mph - N/A   Clear
10:53 PM 73.0 °F - 64.0 °F 73% 29.96 in 10.0 mi South 4.6 mph - N/A   Clear
11:53 PM 71.1 °F - 64.0 °F 78% 29.97 in 10.0 mi South 4.6 mph - N/A   Clear